Date String (YYYY-MM-DD hh:mm:ss) UTC,Instrument flags,absolute air pressure of the measurement (hPa),sample flow rate (lpm),inlet stack bypass flow (lpm),air temperature of the measurement (°C),ambient temperature measured by the external sensor (°C),aerosol sample conditioner tube jacket temperature (°C),OPC LED temperature (°C),internal box temperature (°C),relative humidity of the measurement (%),span deviation,mass concentration of particles derived from Lorenz-Mie calculation of OPC scattering (μg/m³),mass concentration of particles derived from Lorenz-Mie calculation of OPC scattering (μg/m³),mass concentration of particles derived from Lorenz-Mie calculation of OPC scattering (μg/m³)
DateTimeUTC,F1_M11,P_M11,Q1_M11,Q2_M11,T1_M11,T2_M11,T3_M11,T4_M11,T5_M11,U1_M11,ZSPAN_M11,X0_M11,X2_M11,X1_M11
2024-04-16 18:00:00,SystemResetWarning,0822.7,5.01,000.00,025.2,024.5,000.0,033.4,027.0,015.6,0000.0,0003.01,0001.08,0000.70
2024-04-16 18:01:00,SystemResetWarning,0822.9,5.00,000.00,025.2,024.5,000.0,033.4,027.0,015.6,0000.0,0003.54,0001.04,0000.70
2024-04-16 18:02:00,SystemResetWarning,0822.4,5.00,000.00,025.2,024.5,000.0,033.5,027.0,015.3,0000.0,0003.54,0001.04,0000.71
2024-04-16 18:03:00,SystemResetWarning,0822.3,5.00,000.00,025.2,024.5,000.0,033.5,027.0,015.0,0000.0,0004.42,0001.03,0000.71
2024-04-16 18:04:00,SystemResetWarning,0822.4,4.99,000.00,025.2,024.5,000.0,033.5,027.0,014.8,0000.0,0005.55,0001.02,0000.72
2024-04-16 18:05:00,SystemResetWarning,0822.4,4.99,000.00,025.2,024.5,000.0,033.5,027.0,014.1,0000.0,0006.89,0001.06,0000.73
2024-04-16 18:06:00,SystemResetWarning,0822.3,5.01,000.00,025.2,024.5,000.0,033.5,027.1,014.6,0000.0,0006.97,0001.09,0000.73
2024-04-16 18:07:00,SystemResetWarning,0822.3,5.00,000.00,025.3,024.6,000.0,033.5,027.1,015.6,0000.0,0007.07,0001.09,0000.73
2024-04-16 18:08:00,SystemResetWarning,0822.4,5.01,000.00,025.3,024.6,000.0,033.6,027.1,014.7,0000.0,0007.51,0001.13,0000.75
2024-04-16 18:09:00,SystemResetWarning,0822.7,5.00,000.00,025.3,024.6,000.0,033.6,027.1,014.0,0000.0,0007.47,0001.13,0000.76
2024-04-16 18:10:00,SystemResetWarning,0822.6,5.01,000.00,025.3,024.6,000.0,033.6,027.1,014.0,0000.0,0007.52,0001.15,0000.78
2024-04-16 18:11:00,SystemResetWarning,0822.7,4.99,000.00,025.3,024.6,000.0,033.6,027.1,013.9,0000.0,0006.72,0001.19,0000.80
2024-04-16 18:12:00,SystemResetWarning,0822.6,4.99,000.00,025.3,024.6,000.0,033.6,027.1,014.1,0000.0,0006.28,0001.26,0000.84
2024-04-16 18:13:00,SystemResetWarning,0822.6,5.00,000.00,025.3,024.7,000.0,033.6,027.1,014.1,0000.0,0006.43,0001.33,0000.86
2024-04-16 18:14:00,SystemResetWarning,0822.6,5.01,000.00,025.4,024.7,000.0,033.6,027.2,013.8,0000.0,0005.81,0001.42,0000.88
2024-04-16 18:15:00,SystemResetWarning,0822.7,5.01,000.00,025.4,024.7,000.0,033.7,027.2,013.7,0000.0,0004.92,0001.51,0000.91
2024-04-16 18:16:00,SystemResetWarning,0822.8,5.01,000.00,025.4,024.7,000.0,033.7,027.2,013.7,0000.0,0003.61,0001.55,0000.94
2024-04-16 18:17:00,SystemResetWarning,0822.6,5.00,000.00,025.4,024.7,000.0,033.7,027.2,013.6,0000.0,0003.58,0001.57,0000.96
2024-04-16 18:18:00,SystemResetWarning,0822.7,4.99,000.00,025.4,024.7,000.0,033.7,027.2,013.7,0000.0,0003.61,0001.63,0000.98
2024-04-16 18:19:00,SystemResetWarning,0822.7,4.99,000.00,025.4,024.7,000.0,033.7,027.2,013.6,0000.0,0003.04,0001.61,0001.00
2024-04-16 18:20:00,SystemResetWarning,0822.8,5.01,000.00,025.4,024.7,000.0,033.7,027.2,013.7,0000.0,0003.02,0001.62,0001.02
2024-04-16 18:21:00,SystemResetWarning,0822.7,5.01,000.00,025.4,024.7,000.0,033.7,027.1,013.6,0000.0,0003.18,0001.61,0001.03
2024-04-16 18:22:00,SystemResetWarning,0822.7,5.00,000.00,025.4,024.7,000.0,033.7,027.1,013.9,0000.0,0002.96,0001.61,0001.04
2024-04-16 18:23:00,SystemResetWarning,0822.7,5.00,000.00,025.4,024.7,000.0,033.7,027.2,013.6,0000.0,0002.95,0001.61,0001.06
2024-04-16 18:24:00,SystemResetWarning,0822.8,4.99,000.00,025.4,024.7,000.0,033.7,027.2,013.8,0000.0,0002.94,0001.62,0001.07
2024-04-16 18:25:00,SystemResetWarning,0823.0,4.99,000.00,025.4,024.7,000.0,033.7,027.2,013.8,0000.0,0002.75,0001.60,0001.10
2024-04-16 18:26:00,SystemResetWarning,0822.8,5.00,000.00,025.4,024.7,000.0,033.7,027.2,013.6,0000.0,0002.68,0001.59,0001.12
2024-04-16 18:27:00,SystemResetWarning,0822.8,5.01,000.00,025.4,024.7,000.0,033.7,027.2,013.7,0000.0,0002.81,0001.59,0001.13
2024-04-16 18:28:00,SystemResetWarning,0822.8,5.01,000.00,025.4,024.7,000.0,033.8,027.2,013.7,0000.0,0002.86,0001.60,0001.16
2024-04-16 18:29:00,SystemResetWarning,0822.7,5.00,000.00,025.5,024.7,000.0,033.8,027.3,014.0,0000.0,0002.84,0001.62,0001.18
2024-04-16 18:30:00,SystemResetWarning,0822.7,5.00,000.00,025.5,024.8,000.0,033.8,027.3,014.1,0000.0,0003.55,0001.66,0001.20
2024-04-16 18:31:00,SystemResetWarning,0822.7,5.01,000.00,025.5,024.8,000.0,033.8,027.3,013.9,0000.0,0003.92,0001.67,0001.22
2024-04-16 18:32:00,SystemResetWarning,0822.7,4.99,000.00,025.5,024.8,000.0,033.8,027.3,013.6,0000.0,0003.79,0001.69,0001.22
2024-04-16 18:33:00,SystemResetWarning,0822.8,4.99,000.00,025.5,024.8,000.0,033.8,027.3,013.7,0000.0,0004.54,0001.72,0001.22
2024-04-16 18:34:00,SystemResetWarning,0822.9,5.00,000.00,025.5,024.8,000.0,033.8,027.3,013.7,0000.0,0005.83,0001.74,0001.22
2024-04-16 18:35:00,SystemResetWarning,0823.0,5.01,000.00,025.5,024.8,000.0,033.8,027.3,013.5,0000.0,0005.91,0001.74,0001.21
2024-04-16 18:36:00,SystemResetWarning,0822.8,5.00,000.00,025.5,024.8,000.0,033.8,027.3,013.7,0000.0,0005.89,0001.72,0001.21
2024-04-16 18:37:00,SystemResetWarning,0822.9,4.99,000.00,025.5,024.8,000.0,033.8,027.3,013.8,0000.0,0005.85,0001.71,0001.21
2024-04-16 18:38:00,SystemResetWarning,0823.0,4.99,000.00,025.5,024.8,000.0,033.9,027.3,013.3,0000.0,0005.72,0001.69,0001.21
2024-04-16 18:39:00,SystemResetWarning,0823.0,5.01,000.00,025.5,024.8,000.0,033.9,027.4,013.4,0000.0,0005.70,0001.69,0001.21
2024-04-16 18:40:00,SystemResetWarning,0823.0,5.01,000.00,025.6,024.8,000.0,033.9,027.4,013.3,0000.0,0005.69,0001.68,0001.21
2024-04-16 18:41:00,SystemResetWarning,0822.9,5.00,000.00,025.6,024.9,000.0,033.9,027.4,013.4,0000.0,0005.13,0001.71,0001.20
2024-04-16 18:42:00,SystemResetWarning,0823.0,4.99,000.00,025.6,024.9,000.0,033.9,027.4,013.6,0000.0,0004.84,0001.73,0001.20
2024-04-16 18:43:00,SystemResetWarning,0822.9,4.99,000.00,025.6,024.9,000.0,033.9,027.4,013.5,0000.0,0004.87,0001.76,0001.21
2024-04-16 18:44:00,SystemResetWarning,0822.9,5.01,000.00,025.6,024.9,000.0,033.9,027.4,013.6,0000.0,0004.18,0001.76,0001.23
2024-04-16 18:45:00,SystemResetWarning,0823.0,5.00,000.00,025.6,024.9,000.0,033.9,027.4,013.7,0000.0,0002.97,0001.76,0001.23
2024-04-16 18:46:00,SystemResetWarning,0823.0,5.00,000.00,025.6,024.9,000.0,033.9,027.4,013.3,0000.0,0002.92,0001.79,0001.25
2024-04-16 18:47:00,SystemResetWarning,0822.9,5.01,000.00,025.6,024.9,000.0,033.9,027.4,013.7,0000.0,0003.16,0001.84,0001.23
2024-04-16 18:48:00,SystemResetWarning,0822.8,5.00,000.00,025.6,024.9,000.0,033.9,027.4,014.7,0000.0,0003.23,0001.84,0001.22
2024-04-16 18:49:00,SystemResetWarning,0822.9,4.99,000.00,025.7,025.0,000.0,034.0,027.5,014.8,0000.0,0003.19,0001.81,0001.19
2024-04-16 18:50:00,SystemResetWarning,0823.0,4.99,000.00,025.7,025.0,000.0,034.0,027.5,015.1,0000.0,0003.09,0001.77,0001.14
2024-04-16 18:51:00,SystemResetWarning,0822.8,5.01,000.00,025.7,025.0,000.0,034.0,027.5,015.0,0000.0,0003.04,0001.73,0001.10
2024-04-16 18:52:00,SystemResetWarning,0822.9,5.01,000.00,025.7,025.0,000.0,034.0,027.5,014.6,0000.0,0002.77,0001.60,0001.07
2024-04-16 18:53:00,SystemResetWarning,0823.1,4.99,000.00,025.7,025.0,000.0,034.0,027.5,015.0,0000.0,0002.59,0001.52,0001.04
2024-04-16 18:54:00,SystemResetWarning,0822.9,4.99,000.00,025.7,025.0,000.0,034.0,027.5,015.2,0000.0,0003.19,0001.43,0000.99
2024-04-16 18:55:00,SystemResetWarning,0823.1,5.00,000.00,025.7,025.0,000.0,034.0,027.5,014.9,0000.0,0003.75,0001.36,0000.94
2024-04-16 18:56:00,SystemResetWarning,0823.1,5.00,000.00,025.7,025.0,000.0,034.0,027.5,015.2,0000.0,0003.60,0001.28,0000.89
2024-04-16 18:57:00,SystemResetWarning,0822.8,5.01,000.00,025.7,025.0,000.0,034.0,027.5,015.3,0000.0,0003.52,0001.19,0000.84
2024-04-16 18:58:00,SystemResetWarning,0822.9,5.01,000.00,025.8,025.0,000.0,034.1,027.5,015.1,0000.0,0003.25,0001.10,0000.81
2024-04-16 18:59:00,SystemResetWarning,0823.0,5.00,000.00,025.8,025.0,000.0,034.1,027.6,014.9,0000.0,0003.40,0001.03,0000.78
